Palestine, TX

5:56 PM CDT on August 22, 2017 (GMT -0500)
Palestine Municipal

Weather History for KPSN - July, 2014

Change the Weather History Date:

Friday, July 4, 2014

  Actual Average (KTYR) Record (KTYR)
Temperature  
Mean Temperature 74 °F -  
Max Temperature 85 °F 90 °F 104 °F (1931)
Min Temperature 63 °F 71 °F 61 °F (1968)
Cooling Degree Days 9    
Growing Degree Days 24 (Base 50)    
Moisture  
Dew Point 64 °F    
Average Humidity 71    
Maximum Humidity 90    
Minimum Humidity 51    
Precipitation  
Precipitation 0.00 in - - ()
Sea Level Pressure  
Sea Level Pressure 30.20 in    
Wind  
Wind Speed 2 mph (ESE)    
Max Wind Speed 9 mph    
Max Gust Speed -    
Visibility 9 miles    
Events      
Averages and records for this station are not official NWS values.
T = Trace of Precipitation, MM = Missing Value Source: NWS Daily Summary

Daily Weather History Graph

Daily Weather History Graph

Search for Another Location

Airport or City:

Trip Planner

Search our weather history database for the weather conditions in past years. The results will help you decide how hot, cold, wet, or windy it might be!

Date:

Astronomy

Jul. 04, 2014 Rise Set
Actual Time 6:22 AM CDT 8:32 PM CDT
Civil Twilight 5:54 AM CDT 9:00 PM CDT
Nautical Twilight 5:20 AM CDT 9:34 PM CDT
Astronomical Twilight 4:43 AM CDT 10:10 PM CDT
Moon 12:53 PM CDT (7/4) 12:19 AM CDT (7/4)
Length of Visible Light 15h 05m
Length of Day
14h 09m
Waxing Crescent, 42% of the Moon is Illuminated
Jul 4
Waxing Crescent
Jul 5
First Quarter
Jul 12
Full
Jul 18
Last Quarter
Jul 26
New

Hourly Weather History & Observations

Time (CDT) Temp. Heat Index Dew Point Humidity Pressure Visibility Wind Dir Wind Speed Gust Speed Precip Events Conditions
12:15 AM 70.7 °F - 65.8 °F 85% 30.18 in 7.0 mi Calm Calm - N/A   Clear
12:35 AM 69.8 °F - 65.1 °F 85% 30.18 in 10.0 mi Calm Calm - N/A   Clear
12:55 AM 69.8 °F - 65.3 °F 86% 30.18 in 10.0 mi Calm Calm - N/A   Clear
1:15 AM 69.1 °F - 65.1 °F 87% 30.18 in 7.0 mi Calm Calm - N/A   Clear
1:35 AM 68.5 °F - 64.8 °F 88% 30.18 in 10.0 mi Calm Calm - N/A   Clear
1:55 AM 68.4 °F - 64.4 °F 87% 30.18 in 10.0 mi Calm Calm - N/A   Clear
2:15 AM 67.6 °F - 63.7 °F 87% 30.18 in 7.0 mi Calm Calm - N/A   Clear
2:35 AM 67.5 °F - 63.7 °F 88% 30.17 in 10.0 mi Calm Calm - N/A   Clear
2:55 AM 66.9 °F - 63.0 °F 87% 30.17 in 10.0 mi Calm Calm - N/A   Clear
3:15 AM 66.4 °F - 62.6 °F 88% 30.17 in 10.0 mi Calm Calm - N/A   Clear
3:35 AM 66.2 °F - 62.4 °F 88% 30.17 in 10.0 mi Calm Calm - N/A   Clear
3:55 AM 65.5 °F - 61.7 °F 88% 30.16 in 7.0 mi Calm Calm - N/A   Clear
4:15 AM 65.3 °F - 61.7 °F 88% 30.16 in 7.0 mi Calm Calm - N/A   Clear
4:35 AM 64.8 °F - 61.3 °F 89% 30.17 in 7.0 mi Calm Calm - N/A   Clear
4:55 AM 64.4 °F - 61.0 °F 89% 30.18 in 7.0 mi Calm Calm - N/A   Clear
5:15 AM 64.2 °F - 60.8 °F 89% 30.18 in 7.0 mi Calm Calm - N/A   Clear
5:35 AM 64.4 °F - 61.0 °F 89% 30.18 in 7.0 mi Calm Calm - N/A   Clear
5:55 AM 64.4 °F - 61.2 °F 89% 30.19 in 7.0 mi Calm Calm - N/A   Clear
6:15 AM 64.2 °F - 60.8 °F 89% 30.20 in 7.0 mi Calm Calm - N/A   Clear
6:35 AM 64.0 °F - 60.8 °F 89% 30.20 in 5.0 mi Calm Calm - N/A   Clear
6:55 AM 63.7 °F - 60.6 °F 90% 30.20 in 4.0 mi Calm Calm - N/A   Clear
7:15 AM 64.6 °F - 61.7 °F 90% 30.22 in 4.0 mi Calm Calm - N/A   Clear
7:35 AM 64.8 °F - 61.7 °F 90% 30.22 in 5.0 mi Calm Calm - N/A   Clear
7:55 AM 64.9 °F - 61.7 °F 89% 30.23 in 7.0 mi Calm Calm - N/A   Clear
8:15 AM 66.4 °F - 62.2 °F 86% 30.23 in 10.0 mi Calm Calm - N/A   Clear
8:35 AM 67.8 °F - 62.2 °F 82% 30.24 in 10.0 mi Calm Calm - N/A   Clear
8:55 AM 70.7 °F - 61.3 °F 72% 30.24 in 10.0 mi East 3.5 mph - N/A   Clear
9:15 AM 72.3 °F - 61.0 °F 67% 30.24 in 10.0 mi East 3.5 mph - N/A   Clear
9:35 AM 73.2 °F - 59.9 °F 63% 30.25 in 10.0 mi East 5.8 mph - N/A   Clear
9:55 AM 73.8 °F - 61.0 °F 64% 30.25 in 10.0 mi ENE 4.6 mph - N/A   Clear
10:15 AM 74.7 °F - 61.0 °F 62% 30.25 in 10.0 mi East 4.6 mph - N/A   Clear
10:35 AM 75.0 °F - 60.6 °F 61% 30.24 in 10.0 mi East 3.5 mph - N/A   Clear
10:55 AM 75.9 °F - 61.3 °F 60% 30.24 in 10.0 mi East 4.6 mph - N/A   Clear
11:15 AM 77.4 °F - 61.9 °F 59% 30.24 in 10.0 mi SE 4.6 mph - N/A   Clear
11:35 AM 77.5 °F - 61.9 °F 58% 30.24 in 10.0 mi East 4.6 mph - N/A   Clear
11:55 AM 78.4 °F - 61.5 °F 56% 30.24 in 10.0 mi Calm Calm - N/A   Clear
12:15 PM 79.9 °F - 62.6 °F 55% 30.24 in 10.0 mi Calm Calm - N/A   Scattered Clouds
12:35 PM 79.0 °F - 62.6 °F 57% 30.24 in 10.0 mi SE 3.5 mph - N/A   Mostly Cloudy
12:55 PM 80.2 °F 81.5 °F 62.6 °F 55% 30.24 in 10.0 mi SE 3.5 mph - N/A   Scattered Clouds
1:15 PM 80.2 °F 81.4 °F 62.2 °F 54% 30.23 in 10.0 mi Calm Calm - N/A   Mostly Cloudy
1:35 PM 82.0 °F 83.1 °F 62.6 °F 52% 30.23 in 10.0 mi East 8.1 mph - N/A   Mostly Cloudy
1:55 PM 81.9 °F 83.4 °F 64.0 °F 55% 30.22 in 10.0 mi East 6.9 mph - N/A   Mostly Cloudy
2:15 PM 82.2 °F 83.8 °F 64.8 °F 55% 30.22 in 10.0 mi SSE 5.8 mph - N/A   Overcast
2:35 PM 83.3 °F 84.8 °F 64.4 °F 53% 30.22 in 10.0 mi East 4.6 mph - N/A   Mostly Cloudy
2:55 PM 82.8 °F 84.7 °F 65.8 °F 56% 30.22 in 10.0 mi SE 6.9 mph - N/A   Mostly Cloudy
3:15 PM 82.4 °F 84.2 °F 65.3 °F 56% 30.21 in 10.0 mi East 5.8 mph - N/A   Scattered Clouds
3:35 PM 83.5 °F 85.1 °F 64.8 °F 53% 30.21 in 10.0 mi ESE 5.8 mph - N/A   Clear
3:55 PM 84.0 °F 86.3 °F 66.0 °F 55% 30.20 in 10.0 mi ESE 6.9 mph - N/A   Mostly Cloudy
4:15 PM 84.4 °F 86.1 °F 64.9 °F 52% 30.20 in 10.0 mi East 5.8 mph - N/A   Scattered Clouds
4:35 PM 85.3 °F 87.9 °F 66.7 °F 54% 30.19 in 10.0 mi SE 5.8 mph - N/A   Clear
4:55 PM 84.6 °F 86.8 °F 66.0 °F 54% 30.19 in 10.0 mi East 5.8 mph - N/A   Clear
5:15 PM 85.3 °F 87.1 °F 65.5 °F 51% 30.19 in 10.0 mi ESE 6.9 mph - N/A   Clear
5:35 PM 84.9 °F 87.1 °F 66.2 °F 53% 30.18 in 10.0 mi ESE 6.9 mph - N/A   Clear
5:55 PM 85.5 °F 88.2 °F 67.1 °F 54% 30.18 in 10.0 mi East 4.6 mph - N/A   Scattered Clouds
6:15 PM 85.1 °F 88.2 °F 67.8 °F 56% 30.18 in 10.0 mi ESE 9.2 mph - N/A   Scattered Clouds
6:35 PM 83.1 °F 86.3 °F 68.4 °F 61% 30.18 in 10.0 mi East 5.8 mph - N/A   Scattered Clouds
6:55 PM 82.6 °F 85.7 °F 68.5 °F 62% 30.18 in 10.0 mi East 5.8 mph - N/A   Scattered Clouds
7:15 PM 82.6 °F 85.5 °F 67.8 °F 61% 30.18 in 10.0 mi East 5.8 mph - N/A   Clear
7:35 PM 82.0 °F 84.9 °F 67.8 °F 62% 30.18 in 10.0 mi ESE 4.6 mph - N/A   Clear
7:55 PM 81.1 °F 83.4 °F 66.7 °F 61% 30.18 in 10.0 mi ESE 4.6 mph - N/A   Clear
8:15 PM 80.2 °F 82.7 °F 67.6 °F 65% 30.18 in 10.0 mi East 3.5 mph - N/A   Clear
8:35 PM 78.8 °F - 68.2 °F 70% 30.19 in 10.0 mi East 3.5 mph - N/A   Clear
8:55 PM 78.3 °F - 68.4 °F 71% 30.19 in 10.0 mi East 3.5 mph - N/A   Clear
9:15 PM 76.8 °F - 68.5 °F 75% 30.19 in 10.0 mi East 4.6 mph - N/A   Clear
9:35 PM 77.0 °F - 68.4 °F 75% 30.19 in 10.0 mi ESE 4.6 mph - N/A   Clear
10:15 PM 76.3 °F - 66.9 °F 73% 30.20 in 10.0 mi ESE 4.6 mph - N/A   Clear
10:35 PM 75.9 °F - 66.6 °F 73% 30.20 in 10.0 mi East 5.8 mph - N/A   Clear
10:55 PM 75.2 °F - 66.2 °F 73% 30.20 in 10.0 mi East 5.8 mph - N/A   Clear
11:15 PM 75.2 °F - 66.0 °F 73% 30.20 in 10.0 mi East 5.8 mph - N/A   Clear
11:35 PM 75.2 °F - 66.2 °F 73% 30.20 in 10.0 mi East 5.8 mph - N/A   Clear
11:55 PM 74.3 °F - 65.8 °F 75% 30.20 in 10.0 mi East 4.6 mph - N/A   Clear